Regional Weather Roundup
Issued by NWS State College, PA

Home | Current Version | Previous Version | Graphics & Text | Print | Product List | Glossary On
Versions: 1 2 3 4 5 6 7 8 9 10 11 12 13 14 15 16 17 18 19 20 21 22 23 24 25 26 27 28 29 30 31 32 33 34 35 36 37 38 39 40 41 42 43 44 45 46 47 48 49 50
947
ASUS41 KCTP 232010
RWRCTP

REGIONAL WEATHER ROUNDUP
NATIONAL WEATHER SERVICE STATE COLLEGE PA
400 PM EDT FRI JUN 23 2017

Note: "fair" indicates few or no clouds below 12,000 feet with no
significant weather and/or obstructions to visibility.

* = STATION THAT DOES NOT REPORT PRECIPITATION /E.G. RAIN...SNOW...ETC/
    THUNDER OR FOG.

PAZ002>004-007>009-013>016-020>023-029>032-232100-
WESTERN PENNSYLVANIA

CITY           SKY/WX    TMP DP  RH WIND       PRES   REMARKS
ERIE           HVY RAIN  74  71  91 SW12      29.59S FOG
MEADVILLE      PTSUNNY   70  70 100 SW8G18    29.64F
FRANKLIN*      CLOUDY    70  66  88 SW9       29.66F
NEW CASTLE     CLOUDY    71  70  96 VRB3      29.66F
BEAVER COUNTY  LGT RAIN  72  70  94 SW10      29.68F
BUTLER*        CLOUDY    73  70  88 SW10      29.67F
PITTSBURGH INT LGT RAIN  74  72  93 SW9       29.68S
PITTSBURGH     RAIN      72  69  90 NW5G17    29.68F FOG
INDIANA*       CLOUDY    73  72  94 W9        29.73S FOG
LATROBE        LGT RAIN  77  75  94 NW10      29.71F FOG
WASHINGTON CO* CLOUDY    72  68  88 SW14G26   29.75F
$$

PAZ004>006-010>012-017>019-024>028-033>037-041-042-045-046-049>053-232100-
CENTRAL PENNSYLVANIA

CITY           SKY/WX    TMP DP  RH WIND       PRES   REMARKS
BRADFORD       RAIN      68  68 100 W6        29.68S FOG
DUBOIS         CLOUDY    72  69  90 SW16G25   29.67F
CLEARFIELD     CLOUDY    78  71  79 SW14G21   29.69F
JOHNSTOWN      LGT RAIN  73  70  90 SW15G22   29.74F
ALTOONA        PTSUNNY   77  72  84 SW7       29.71F
STATE COLLEGE  PTSUNNY   77  73  88 SW10      29.69F
WILLIAMSPORT   CLOUDY    82  71  69 SW6       29.63F
SELINSGROVE    MOSUNNY   81  74  79 S6        29.65F
FT INDIANTOWN  SHOWER    81  77  89 W13       29.66F
CAPITAL CITY   RAIN      84  73  69 SW9       29.66F
HARRISBURG     PTSUNNY   86  72  62 VRB7      29.64F
YORK           PTSUNNY   87  75  67 S15G22    29.67F HX  96
$$

PAZ038>040-043-044-047-048-054-055-060>062-067>071-232100-
EASTERN PENNSYLVANIA

CITY           SKY/WX    TMP DP  RH WIND       PRES   REMARKS
SCRANTON       CLOUDY    80  69  69 SW12      29.67F
MOUNT POCONO   CLOUDY    73  70  90 SW12      29.74F
ALLENTOWN      MOSUNNY   84  71  65 SW15      29.67F
QUAKERTOWN*    MOCLDY    84  73  70 S10G16    29.70F
READING        MOSUNNY   86  74  67 SW10      29.66F
LANCASTER      MOSUNNY   90  73  57 W17G23    29.67F HX  98
COATESVILLE    MOCLDY    82  75  78 S8G16     29.72F
POTTSTOWN      PTSUNNY   84  74  71 S7        29.70F
BLUE BELL      MOSUNNY   84  73  70 SW13G23   29.71F
DOYLESTOWN     MOSUNNY   84  73  69 SW10G18   29.69F
WILLOW GROVE   NOT AVBL
NORTH PHILA    PTSUNNY   87  72  60 SW15G23   29.71F
PHILADELPHIA   PTSUNNY   88  72  58 SW20G26   29.71F
$$




USA.gov is the U.S. government's official web portal to all federal, state and local government web resources and services.